Current Weather Conditions: station 63113

sailwx.info

Wind from 050 at 13 knots

Wave height 1.4 meters (4 feet), 5 second period

Air temperature 9.3° C
Dewpoint 8.8° C

Last reported at 2018-May-26 03:00 UTC.
Time now 2018-May-26 04:26 UTC

Location: N 61°00' E 001°42'.
View on Google Maps.

See reports from other nearby stations

  
Tides and Currents Weather Stations Pressure Air Temp Water Temp Dewpoint Dewpoint Depression Visibility Wind Speed Wind Dir Waves Ship Positions
date/time (UTC)wind fromknots sea level pressurealtimeterstation pressurevisibilityair tempwater tempwave heightnotes
2018-May-26 03:00 050 13 9.3 1.4
2018-May-26 02:00 030 15 8.9 1.2
2018-May-26 01:00 020 13 9.3 1.1
2018-May-26 00:00 040 11 10.1 1.2
2018-May-25 23:00 040 12 10.2 1.2
2018-May-25 22:00 030 13 10.2 1.0
2018-May-25 21:00 040 13 10.2 1.1
2018-May-25 20:00 040 13 10.1 1.1
2018-May-25 19:00 030 13 9.8 1.0
2018-May-25 18:00 020 13 9.8 1.2
2018-May-25 17:00 030 11 10.3 1.2
2018-May-25 16:00 020 9 10.4 1.2
2018-May-25 15:00 030 7 11.0 1.2
2018-May-25 14:00 060 6 10.9 1.2
2018-May-25 13:00 010 7 9.5 1.2
2018-May-25 12:00 350 6 9.5 1.2
2018-May-25 11:00 340 6 9.4 1.3
2018-May-25 10:00 330 5 9.8 1.2
2018-May-25 09:00 10.8 1.2
2018-May-25 08:00 270 1 10.5 1.1
2018-May-25 07:00 260 6 10.4 1.3
2018-May-25 06:00 240 8 10.5 1.4
2018-May-25 05:00 230 11 10.3 1.4
2018-May-25 04:00 210 14 10.2 1.5
2018-May-25 03:00 200 15 10.1 1.5
2018-May-25 02:00 190 15 9.9 1.6
2018-May-25 01:00 190 14 9.6 1.5
2018-May-25 00:00 180 13 9.5 1.5
2018-May-24 23:00 180 11 9.5 1.4
2018-May-24 22:00 170 11 9.5 1.5
2018-May-24 21:00 170 8 9.5 1.5
2018-May-24 20:00 180 8 9.4 1.6
2018-May-24 19:00 190 9 8.8 1.9
2018-May-24 18:00 190 9 8.5 1.8
2018-May-24 17:00 200 11 8.6 1.9
2018-May-24 16:00 200 9 8.7 1.7
2018-May-24 15:00 200 11 8.7 1.8
2018-May-24 14:00 190 12 8.6 1.7
2018-May-24 13:00 200 13 8.8 1.4
2018-May-24 12:00 200 11 9.0 1.6
2018-May-24 11:00 200 11 8.9 1.5
2018-May-24 10:00 200 9 8.8 1.5
2018-May-24 09:00 210 8 8.8 1.6
2018-May-24 08:00 210 7 9.0 1.7
2018-May-24 07:00 220 6 8.7 1.9
2018-May-24 06:00 220 6 8.5 2.2
2018-May-24 05:00 250 6 8.5 1.9
2018-May-24 04:00 250 6 8.8